FW3683 Weather Reports


time (UTC)temp
C
wind
direction
speed
KPH
gust
KPH
rain 1hr
cm
rain 24hr
cm
rain mn
cm
humidity
%
barometer
mb
20260505051529 7 315 0.0 0.0 0.00 0.00 0.00 93 1020.3
20260505051027 7 315 0.0 0.0 0.00 0.00 0.00 93 1020.2
20260505041524 8 315 0.0 0.0 0.00 0.00 0.00 91 1020.0
20260505041019 8 315 0.0 0.0 0.00 0.00 0.00 91 1020.1
20260505040023 8 315 0.0 0.0 0.00 0.00 0.00 90 1020.1
20260505035526 8 315 0.0 0.0 0.00 0.00 0.00 90 1020.0
20260505035021 8 315 0.0 0.0 0.00 0.00 0.00 90 1020.0
20260505034520 9 315 0.0 0.0 0.00 0.00 0.00 90 1020.1
20260505034019 9 315 0.0 0.0 0.00 0.00 0.00 89 1020.3
20260505033519 9 315 0.0 0.0 0.00 0.00 0.00 89 1020.2
20260505033018 9 315 0.0 0.0 0.00 0.00 0.00 89 1020.3
20260505032517 10 315 0.0 0.0 0.00 0.00 0.00 89 1020.4
20260505032015 10 302 0.0 0.0 0.00 0.00 0.00 88 1020.4
20260505031515 10 302 0.0 0.0 0.00 0.00 0.00 88 1020.3
20260505031014 10 302 0.0 0.0 0.00 0.00 0.00 87 1020.3
20260505030009 10 302 0.0 0.0 0.00 0.00 0.00 87 1020.3
20260505025515 10 302 0.0 0.0 0.00 0.00 0.00 86 1020.3
20260505025006 10 302 0.0 0.0 0.00 0.00 0.00 86 1020.3
20260505024608 11 302 0.0 0.0 0.00 0.00 0.00 86 1020.4
20260505024004 11 302 0.0 0.0 0.00 0.00 0.00 85 1020.4
20260505023503 11 302 0.0 0.0 0.00 0.00 0.00 84 1020.3
20260505023009 11 302 0.0 0.0 0.00 0.00 0.00 84 1020.4
20260505022502 11 302 0.0 0.0 0.00 0.00 0.00 84 1020.3
20260505022002 11 137 0.0 0.0 0.00 0.00 0.00 83 1020.1
20260505021602 11 137 0.0 0.0 0.00 0.00 0.00 83 1020.2
20260505021059 12 138 0.0 0.0 0.00 0.00 0.00 82 1020.2
20260505020002 12 137 0.0 0.0 0.00 0.00 0.00 81 1020.0
20260505015502 12 137 0.0 0.0 0.00 0.00 0.00 80 1019.9
20260505015104 12 137 0.0 0.0 0.00 0.00 0.00 80 1019.8
20260505014600 12 138 0.0 0.0 0.00 0.00 0.00 79 1019.8
20260505014102 13 137 0.0 0.0 0.00 0.00 0.00 79 1019.7
20260505013557 13 137 0.0 0.0 0.00 0.00 0.00 79 1019.7
20260505013125 13 137 0.0 0.0 0.00 0.00 0.00 77 1019.6
20260505012556 13 137 0.0 0.0 0.00 0.00 0.00 77 1019.6
20260505012056 13 137 0.0 0.0 0.00 0.00 0.00 76 1019.5
20260505011600 14 137 0.0 0.0 0.00 0.00 0.00 76 1019.5
20260505011053 14 137 0.0 0.0 0.00 0.00 0.00 75 1019.5
20260505010105 15 137 0.0 0.0 0.00 0.00 0.00 72 1019.4
20260505005553 15 137 0.0 0.0 0.00 0.00 0.00 71 1019.3
20260505005052 15 147 0.0 0.0 0.00 0.00 0.00 70 1019.3
20260505004552 15 201 0.0 0.0 0.00 0.00 0.00 69 1019.2
20260505004051 16 201 0.0 0.0 0.00 0.00 0.00 69 1019.1
20260505003556 16 201 0.0 0.0 0.00 0.00 0.00 67 1019.0
20260505003053 16 201 0.0 0.0 0.00 0.00 0.00 65 1018.9
20260505002550 17 224 0.0 0.0 0.00 0.00 0.00 63 1018.7
20260505002050 17 221 0.0 0.0 0.00 0.00 0.00 64 1018.7
20260505001550 17 221 0.0 0.0 0.00 0.00 0.00 64 1018.8
20260505001050 17 221 0.0 0.0 0.00 0.00 0.00 62 1018.7
20260505000057 18 137 0.0 0.0 0.00 0.00 0.00 62 1018.6
20260504235546 18 232 0.0 0.0 0.00 0.00 0.00 60 1018.6
20260504235046 18 207 0.0 0.0 0.00 0.00 0.00 56 1018.6
20260504234547 19 232 0.0 0.0 0.00 0.00 0.00 59 1018.5
20260504234045 19 226 0.0 0.0 0.00 0.00 0.00 55 1018.4
20260504233545 19 215 0.0 0.0 0.00 0.00 0.00 56 1018.4
20260504233049 20 236 0.0 0.0 0.00 0.00 0.00 52 1018.3
20260504232549 20 233 0.0 0.0 0.00 0.00 0.00 48 1018.3
20260504232046 20 216 0.0 0.0 0.00 0.00 0.00 48 1018.3
20260504231544 21 11 0.0 0.0 0.00 0.00 0.00 49 1018.4
20260504231043 22 11 0.0 0.0 0.00 0.00 0.00 41 1018.4
20260504230041 22 60 0.0 0.0 0.00 0.00 0.00 38 1018.3
20260504225541 22 339 0.0 0.0 0.00 0.00 0.00 36 1018.3
20260504225042 23 348 0.0 0.0 0.00 0.00 0.00 37 1018.4
20260504224540 23 79 0.0 0.0 0.00 0.00 0.00 36 1018.4
20260504224041 23 72 0.0 0.0 0.00 0.00 0.00 35 1018.4
20260504223541 23 64 0.0 0.0 0.00 0.00 0.00 34 1018.3
20260504223047 23 51 0.0 0.0 0.00 0.00 0.00 34 1018.4
20260504222541 23 102 0.0 0.0 0.00 0.00 0.00 34 1018.5
20260504222040 23 115 0.0 0.0 0.00 0.00 0.00 34 1018.4
20260504221539 23 89 0.0 0.0 0.00 0.00 0.00 34 1018.4
20260504221040 23 93 0.0 0.0 0.00 0.00 0.00 33 1018.5
20260504220042 23 96 0.0 0.0 0.00 0.00 0.00 32 1018.4
20260504215538 23 68 0.0 0.0 0.00 0.00 0.00 31 1018.5
20260504215038 23 90 0.0 0.0 0.00 0.00 0.00 32 1018.3
20260504214545 23 130 0.0 0.0 0.00 0.00 0.00 31 1018.5
20260504214039 24 51 0.0 0.0 0.00 0.00 0.00 30 1018.3
20260504213539 24 42 0.0 0.0 0.00 0.00 0.00 32 1018.3
20260504213041 24 89 0.0 0.0 0.00 0.00 0.00 32 1018.4
20260504212538 24 65 0.0 0.0 0.00 0.00 0.00 33 1018.3
20260504212038 24 49 0.0 0.0 0.00 0.00 0.00 33 1018.4
20260504211538 24 45 0.0 0.0 0.00 0.00 0.00 31 1018.4
20260504211041 24 105 0.0 0.0 0.00 0.00 0.00 32 1018.4
20260504210042 24 46 0.0 0.0 0.00 0.00 0.00 31 1018.3
20260504205544 24 318 0.0 0.0 0.00 0.00 0.00 32 1018.4
20260504205040 24 46 0.0 0.0 0.00 0.00 0.00 31 1018.4
20260504204541 25 115 0.0 0.0 0.00 0.00 0.00 31 1018.4
20260504204041 25 181 0.0 0.0 0.00 0.00 0.00 30 1018.5
20260504203541 25 67 0.0 0.0 0.00 0.00 0.00 31 1018.5
20260504203041 25 144 0.0 0.0 0.00 0.00 0.00 31 1018.5
20260504202538 25 241 0.0 0.0 0.00 0.00 0.00 31 1018.3
20260504202038 25 356 0.0 0.0 0.00 0.00 0.00 32 1018.6
20260504201543 25 105 0.0 0.0 0.00 0.00 0.00 31 1018.6
20260504201042 25 188 0.0 0.0 0.00 0.00 0.00 32 1018.7
20260504200033 25 127 0.0 0.0 0.00 0.00 0.00 32 1018.9
20260504195533 25 53 0.0 0.0 0.00 0.00 0.00 33 1018.9
20260504195031 25 143 0.0 0.0 0.00 0.00 0.00 31 1018.9
20260504194532 26 112 0.0 0.0 0.00 0.00 0.00 32 1019.0
20260504194030 25 73 0.0 0.0 0.00 0.00 0.00 32 1019.1
20260504193529 25 78 0.0 0.0 0.00 0.00 0.00 32 1019.1
20260504193030 25 58 0.0 0.0 0.00 0.00 0.00 32 1019.2
20260504192528 25 120 0.0 0.0 0.00 0.00 0.00 33 1019.3
20260504192031 25 106 0.0 0.0 0.00 0.00 0.00 33 1019.2
20260504191528 25 76 0.0 0.0 0.00 0.00 0.00 32 1019.3
20260504191027 25 104 0.0 0.0 0.00 0.00 0.00 32 1019.4
20260504190026 25 113 0.0 0.0 0.00 0.00 0.00 31 1019.6
20260504185524 25 85 0.0 0.0 0.00 0.00 0.00 31 1019.6
20260504185023 25 49 0.0 0.0 0.00 0.00 0.00 33 1019.7
20260504184524 25 134 0.0 0.0 0.00 0.00 0.00 32 1019.7
20260504184022 25 59 0.0 0.0 0.00 0.00 0.00 32 1019.7
20260504183520 25 120 0.0 0.0 0.00 0.00 0.00 36 1019.8
20260504183020 24 247 0.0 0.0 0.00 0.00 0.00 33 1020.0
20260504182519 24 136 0.0 0.0 0.00 0.00 0.00 37 1020.1
20260504182019 24 68 0.0 0.0 0.00 0.00 0.00 34 1020.2
20260504181526 23 153 0.0 0.0 0.00 0.00 0.00 33 1020.3
20260504181018 23 86 0.0 0.0 0.00 0.00 0.00 33 1020.4
20260504180018 23 51 0.0 0.0 0.00 0.00 0.00 34 1020.5
20260504175518 23 56 0.0 0.0 0.00 0.00 0.00 35 1020.6
20260504175018 23 134 0.0 0.0 0.00 0.00 0.00 36 1020.6
20260504174517 23 91 0.0 0.0 0.00 0.00 0.00 37 1020.6
20260504174017 23 120 0.0 0.0 0.00 0.00 0.00 35 1020.6
20260504173516 23 118 0.0 0.0 0.00 0.00 0.00 34 1020.9
20260504173015 23 328 0.0 0.0 0.00 0.00 0.00 34 1020.7
20260504172514 23 43 0.0 0.0 0.00 0.00 0.00 36 1020.8
20260504172014 23 113 0.0 0.0 0.00 0.00 0.00 37 1020.8
20260504171514 23 94 0.0 0.0 0.00 0.00 0.00 36 1020.9
20260504171014 23 122 0.0 0.0 0.00 0.00 0.00 36 1020.9
20260504151054 21 41 0.0 0.0 0.00 0.00 0.00 43 1023.0
20260504141045 17 37 0.0 0.0 0.00 0.00 0.00 51 1023.1
20260504081533 2 53 0.0 0.0 0.00 0.00 0.00 95 1022.7
20260504081024 2 53 0.0 0.0 0.00 0.00 0.00 95 1022.7
20260504060112 5 235 0.0 0.0 0.00 0.00 0.00 94 1022.8